Home > Weather > Canvey Island > Past weeks

Flag for United Kingdom Past Weather in Canvey Island, England, United Kingdom — Yesterday and Last 2 Weeks

Now
77 °F

Passing clouds.


Feels Like: 79 °F
Forecast: 61 / 74 °F
Wind: 8 mph from West

Location: Southend Airport-On-Sea

Current Time: Aug 26, 2016 at 1:18:57 PM

Latest Report: Aug 26, 2016 at 12:50 PM


Visibility: N/A

Pressure: 30.07 "Hg

Humidity: 47%

Dew Point: 55 °F

Location of Canvey IslandLocation

Past Weather in Canvey Island — Graph

°F

Canvey Island Temperature Yesterday

Maximum temperature yesterday: 79 °F (at 3:20 PM)
Minimum temperature yesterday: 64 °F (at 3:50 AM)
Average temperature yesterday: 72 °F

High & Low Weather Summary for the Past Weeks

 TemperatureHumidityPressure
High91 °F (Aug 24, 3:20 PM)94% (Aug 15, 4:20 AM)30.30 "Hg (Aug 15, 4:20 AM)
Low48 °F (Aug 15, 4:20 AM)36% (Aug 24, 3:20 PM)29.68 "Hg (Aug 19, 3:20 PM)
Average67 °F68%30.05 "Hg
* Reported Aug 11 12:20 PM — Aug 26 12:20 PM, Canvey Island, Weather by CustomWeather, © 2016

Note: Actual official high and low records may vary slightly from our data, if they occured in-between our weather recording intervals... More about our weather records

Advertising

Canvey Island Weather History for the Previous 24 Hours

Scroll right to see more
 ConditionsComfort  
Time TempWeatherWind HumidityBarometerVisibility
12:20 PM
Fri, Aug 26
75 °FPassing clouds.6 mph50%30.07 "HgN/A
11:50 AM75 °FPassing clouds.5 mph54%30.07 "HgN/A
11:20 AM73 °FPassing clouds.7 mph57%30.07 "HgN/A
10:50 AM73 °FPassing clouds.8 mph57%30.07 "HgN/A
10:20 AM72 °FPassing clouds.7 mph61%30.07 "HgN/A
9:50 AM72 °FPassing clouds.6 mph65%30.04 "HgN/A
9:20 AM70 °FPassing clouds.5 mph69%30.04 "HgN/A
8:50 AM68 °FPassing clouds.5 mph78%30.04 "HgN/A
8:20 AM68 °FPassing clouds.5 mph83%30.04 "HgN/A
7:50 AM66 °FPassing clouds.6 mph83%30.01 "Hg4 mi
7:20 AM64 °FHaze.5 mph88%30.01 "Hg2 mi
6:50 AM64 °FHaze.5 mph88%30.01 "Hg2 mi
6:20 AM64 °FSprinkles. Fog.5 mph88%29.98 "Hg2 mi
5:50 AM64 °FSprinkles. Fog.5 mph88%29.98 "Hg2 mi
5:20 AM66 °FSprinkles. Passing clouds.No wind88%29.95 "Hg4 mi
4:50 AM66 °FThundershowers. Passing clouds.3 mph88%29.95 "Hg4 mi
3:50 AM68 °FScattered showers. Passing clouds.6 mph88%29.95 "HgN/A
3:20 AM70 °FScattered showers. Passing clouds.6 mph88%29.95 "HgN/A
2:50 AM68 °FScattered showers. Passing clouds.2 mph94%29.98 "Hg4 mi
2:20 AM68 °FThunderstorms. Passing clouds.2 mph88%29.95 "Hg2 mi
1:50 AM68 °FSprinkles. Passing clouds.5 mph88%29.92 "Hg4 mi
12:50 AM66 °FClear.2 mph88%29.92 "Hg10 mi
11:50 PM
Thu, Aug 25
64 °FClear.2 mph88%29.92 "Hg10 mi
10:50 PM66 °FClear.2 mph88%29.92 "Hg10 mi
10:20 PM68 °FClear.3 mph88%29.92 "Hg10 mi
9:50 PM66 °FClear.3 mph88%29.92 "Hg10 mi
9:20 PM68 °FClear.3 mph83%29.92 "Hg10 mi
8:50 PM70 °FSunny.6 mph83%29.92 "Hg10 mi
8:20 PM72 °FSunny.6 mph78%29.92 "Hg10 mi
7:50 PM72 °FSunny.2 mph73%29.92 "Hg10 mi
7:20 PM75 °FSunny.5 mph69%29.92 "Hg10 mi
6:50 PM77 °FSunny.7 mph65%29.92 "Hg10 mi
6:20 PM79 °FSunny.6 mph61%29.92 "Hg10 mi
5:50 PM79 °FSunny.7 mph58%29.92 "Hg10 mi
5:20 PM79 °FSunny.7 mph61%29.92 "Hg10 mi
4:50 PM79 °FClear.6 mph61%29.92 "Hg6 mi
4:20 PM79 °FClear.6 mph58%29.92 "Hg6 mi
3:50 PM79 °FClear.6 mph61%29.95 "Hg6 mi
3:20 PM79 °FPassing clouds.6 mph61%29.95 "HgN/A
2:50 PM77 °FPassing clouds.8 mph65%29.95 "HgN/A
2:20 PM77 °FPassing clouds.7 mph65%29.95 "HgN/A
1:50 PM77 °FPassing clouds.7 mph65%29.95 "HgN/A
1:20 PM77 °FPassing clouds.8 mph65%29.98 "HgN/A
Weather by CustomWeather, © 2016

See weather overviewHow to use our weather pages